TIANMU-1 14 (58648 NORAD) Tracking and Keplerian Element Data

This shows tracking and keplerian element data for the satellite.

Feedback or suggestion? Click here.




ElementValue
Catalog58648
NameTIANMU-1 14
Epoch Orbit289
Epoch Day13.19079343
Epoch Year2024
RAAN42.2893
Inclination97.4133
Eccentricity0.0010507
Argument of Perigee196.8643
Mean Anonmoly163.2241
Mean Motion15.13613212
Decay Rate5.692E-05
L11 58648U 23205D 24013.19079343 .00005692 00000+0 32009-3 0 9997
L22 58648 97.4133 42.2893 0010507 196.8643 163.2241 15.13613212 2891



Live tracking and technical data element details for TIANMU-1 14 (NORAD 58648). TIANMU-1 14 can be tracked NOW for your location showing map with azimuth and elevation plus other details from your city location.







IsCatalogInMostPopularTable: catalog: 58648, numindb: 22
Update: records affected: 1



GetName: 58648 TIANMU-1 14

Hit Count: updated at: Wed, 17 Apr 2024 03:32:52 GMT